Weather History for Barking Sands, HI

Change the Weather History Date:

Friday, September 20, 2013

  Actual Average Record
Temperature  
Mean Temperature 78 °F -  
Max Temperature 84 °F 87 °F 92 °F (1965)
Min Temperature 72 °F 66 °F 63 °F (1974)
Cooling Degree Days 13    
Growing Degree Days 28 (Base 50)    
Moisture  
Dew Point 65 °F    
Average Humidity 64    
Maximum Humidity 74    
Minimum Humidity 56    
Precipitation  
Precipitation 0.00 in - - ()
Sea Level Pressure  
Sea Level Pressure 30.03 in    
Wind  
Wind Speed 5 mph (NW)    
Max Wind Speed 9 mph    
Max Gust Speed -    
Visibility 10 miles    
Events      
Averages and records for this station are not official NWS values.
T = Trace of Precipitation, MM = Missing Value Source: NWS Daily Summary

Daily Weather History Graph

Daily Weather History Graph

Search for Another Location

Airport:

Trip Planner

Search our weather history database for the weather conditions in past years. The results will help you decide how hot, cold, wet, or windy it might be!

Date:

Astronomy

Sep. 20, 2013 Rise Set
Actual Time 6:27 AM HST 6:36 PM HST
Civil Twilight 6:05 AM HST 6:59 PM HST
Nautical Twilight 5:39 AM HST 7:25 PM HST
Astronomical Twilight 5:13 AM HST 7:51 PM HST
Moon 7:36 PM HST (9/20) 7:39 AM HST (9/20)
Length of Visible Light 12h 54m
Length of Day
12h 09m
Full, 97% of the Moon is Illuminated
Sep 20
Full
Sep 26
Last Quarter
Oct 4
New
Oct 11
First Quarter
Oct 18
Full

Hourly Weather History & Observations

Time (HST) Temp. Heat Index Dew Point Humidity Pressure Visibility Wind Dir Wind Speed Gust Speed Precip Events Conditions
12:56 AM 75.0 °F - 60.1 °F 60% 30.04 in 10.0 mi ENE 4.6 mph - N/A   Clear
1:56 AM 73.9 °F - 59.0 °F 59% 30.02 in 10.0 mi NE 3.5 mph - N/A   Clear
2:56 AM 72.0 °F - 60.1 °F 66% 30.02 in 10.0 mi ESE 4.6 mph - N/A   Clear
3:56 AM 73.0 °F - 60.1 °F 64% 30.01 in 10.0 mi ENE 3.5 mph - N/A   Clear
4:56 AM 72.0 °F - 60.1 °F 66% 30.02 in 10.0 mi ENE 4.6 mph - N/A   Clear
5:56 AM 72.0 °F - 60.1 °F 66% 30.03 in 10.0 mi East 4.6 mph - N/A   Clear
6:56 AM 72.0 °F - 61.0 °F 68% 30.03 in 10.0 mi East 3.5 mph - N/A   Clear
7:56 AM 80.1 °F 81.5 °F 63.0 °F 56% 30.04 in 10.0 mi Calm Calm - N/A   Clear
8:56 AM 81.0 °F 83.3 °F 66.9 °F 62% 30.06 in 10.0 mi SW 4.6 mph - N/A   Clear
9:56 AM 82.0 °F 84.5 °F 66.9 °F 60% 30.06 in 10.0 mi West 6.9 mph - N/A   Clear
10:56 AM 84.0 °F 86.5 °F 66.9 °F 56% 30.06 in 10.0 mi West 9.2 mph - N/A   Clear
11:56 AM 82.0 °F 84.5 °F 66.9 °F 60% 30.06 in 10.0 mi SW 5.8 mph - N/A   Overcast
12:56 PM 82.0 °F 84.9 °F 68.0 °F 62% 30.04 in 10.0 mi NW 6.9 mph - N/A   Overcast
1:56 PM 82.9 °F 85.4 °F 66.9 °F 58% 30.02 in 10.0 mi West 5.8 mph - 0.00 in   Mostly Cloudy
2:56 PM 84.0 °F 87.0 °F 68.0 °F 58% 30.00 in 10.0 mi West 9.2 mph - N/A   Scattered Clouds
3:56 PM 84.0 °F 87.8 °F 69.1 °F 61% 30.00 in 10.0 mi West 9.2 mph - N/A   Partly Cloudy
4:56 PM 82.9 °F 87.0 °F 70.0 °F 65% 30.00 in 10.0 mi West 8.1 mph - N/A   Overcast
5:56 PM 82.9 °F 87.0 °F 70.0 °F 65% 30.00 in 10.0 mi WSW 6.9 mph - N/A   Overcast
6:56 PM 82.0 °F 84.9 °F 68.0 °F 62% 30.02 in 10.0 mi Calm Calm - N/A   Overcast
7:56 PM 78.1 °F - 69.1 °F 74% 30.04 in 10.0 mi NNE 3.5 mph - N/A   Partly Cloudy
8:56 PM 78.1 °F - 66.9 °F 68% 30.05 in 10.0 mi Calm Calm - N/A   Partly Cloudy
9:56 PM 75.0 °F - 66.0 °F 73% 30.07 in 10.0 mi East 3.5 mph - N/A   Partly Cloudy
10:56 PM 75.9 °F - 66.9 °F 74% 30.06 in 10.0 mi Calm Calm - N/A   Clear
11:56 PM 73.9 °F - 64.9 °F 73% 30.06 in 10.0 mi Calm Calm - N/A   Clear